Volver al catálogo

SBS 6

ActivoComunicacionesGEO
NORAD 20872·PAYLOAD·🇺🇸 United States

Lanzado Oct 12, 1990 desde Guiana Space Centre

Loading…

TLE

ActualizadoSource: Space-Track

Época: Sep 14, 2026, 10:45 UTC

1 20872U 90091A   26257.44792763  .00000042  00000-0  00000-0 0  9998
2 20872  12.7713  28.0932 0008172 155.7200 207.9980  0.98990773 46988

Sigue SBS 6 en tiempo real con AllMySat

Download on the App Store